Flag for Brazil Weather past 2 weeks in Porto Velho, Rondônia, Brazil

Now
86 °F

Scattered clouds.


Feels Like: 99 °F
Forecast: 73 / 88 °F
Wind: No wind

Location: Porto Velho Aeroporto

Current Time: Jul 23, 2014 at 12:43:30 PM

Latest Report: Jul 23, 2014 at 12:00 PM


Visibility: N/A

Pressure: 29.95 "Hg

Humidity: 79%

Dew point: 79 °F

Location of Porto VelhoLocation

Historic Weather in Porto Velho — Graph

°F

Porto Velho temperature yesterday

Maximum temperature yesterday: 88 °F (at 1:00 PM)
Minimum temperature yesterday: 73 °F (at 4:00 AM)
Average temperature yesterday: 78 °F

Past Weeks' High & Low Weather Summary

 TemperatureHumidityPressure
High95 °F (Jul 14, 3:00 PM)94% (Jul 9, 4:00 AM)30.07 "Hg (Jul 9, 4:00 AM)
Low66 °F (Jul 10, 1:00 AM)32% (Jul 14, 4:00 PM)29.83 "Hg (Jul 21, 4:00 PM)
Average78 °F76%29.96 "Hg
* Reported Jul 8 11:00 AM — Jul 23 11:00 AM, Porto Velho, Weather by CustomWeather, © 2014

Note: Actual official high and low records may vary slightly from our data, if they occured in-between our weather recording intervals... More about our weather records

Advertising

Porto Velho weather history for previous 24 hours

 ConditionsComfort  
Time TempWeatherWind HumidityBarometerVisibility
11:00 AM
Jul 23
84 °FSunny.No wind79%29.98 "Hg10 mi
10:00 AM81 °FSunny.No wind84%30.01 "Hg10 mi
9:00 AM79 °FSunny.7 mph84%30.01 "Hg10 mi
8:00 AM77 °FSunny.No wind89%29.98 "Hg10 mi
7:00 AM73 °FSunny.No wind89%29.95 "Hg10 mi
6:00 AM73 °FClear.No wind89%29.92 "Hg10 mi
5:00 AM75 °FClear.3 mph89%29.92 "Hg10 mi
2:00 AM73 °FClear.No wind89%29.89 "Hg10 mi
1:00 AM75 °FClear.No wind83%29.92 "Hg10 mi
12:00 AM75 °FClear.No wind83%29.92 "Hg10 mi
11:00 PM
Jul 22
75 °FPassing clouds.No wind83%29.92 "HgN/A
10:00 PM77 °FPassing clouds.No wind79%29.92 "HgN/A
9:00 PM77 °FPassing clouds.No wind79%29.89 "HgN/A
8:00 PM77 °FPassing clouds.No wind79%29.86 "HgN/A
1:00 PM88 °FScattered clouds.2 mph70%29.92 "HgN/A
12:00 PM86 °FScattered clouds.3 mph79%29.95 "HgN/A
Weather by CustomWeather, © 2014

See weather overviewHow to use our weather pages